FLOCK 4S-2 (47498 NORAD) Tracking and Keplerian Element Data

This shows tracking and keplerian element data for the satellite.

Feedback or suggestion? Click here.




ElementValue
Catalog47498
NameFLOCK 4S-2
Epoch Orbit1168
Epoch Day99.88678917
Epoch Year2021
RAAN162.2677
Inclination97.4934
Eccentricity0.0009826
Argument of Perigee343.0648
Mean Anonmoly17.0254
Mean Motion15.12649281
Decay Rate1.765E-05
L11 47498U 21006CP 21099.88678917 .00001765 00000-0 10461-3 0 9990
L22 47498 97.4934 162.2677 0009826 343.0648 17.0254 15.12649281 11688

Live tracking and technical data element details for FLOCK 4S-2 (NORAD 47498). FLOCK 4S-2 can be tracked NOW for your location showing map with azimuth and elevation plus other details from your city location.

Track the satellite on the map from your city or location and see movement details for azimuth, elevation, latitude, longitude, range, height, and movement on the map or in text.







IsCatalogInMostPopularTable: catalog: 47498, numindb: 15
Update: records affected: 1



GetName: 47498 FLOCK 4S-2

Hit Count: updated at: Sat, 10 Apr 2021 19:38:01 GMT